Cloud_Cover
84 41 100 100 100 100 49 99 96 100 100 100 100 100 100 100 100 100 100 100 100 100 71 5 5 58 42 86 89 51 63 43 12 5 5 4 5 5 5 5 5 5 4 1 4
100 92 97 71 55 100 100 87 100 100 82 100 100 100 100 100 100 100 100 100 100 100 100 32 5 72 93 25 5 5 93 7 9 77 4 3 5 5 5 2 5 5 0 1 0
100 100 100 100 40 73 98 59 51 75 20 95 100 100 100 100 100 100 100 100 100 100 100 100 39 10 100 98 11 8 100 6 83 61 5 5 5 5 4 22 6 4 0 0 0
100 98 96 100 100 83 66 93 48 94 5 64 94 100 100 100 100 100 100 100 100 100 100 100 100 31 90 100 18 5 100 27 5 89 26 4 4 1 3 5 1 2 4 5 5
100 100 84 90 100 100 100 18 80 100 22 5 5 22 83 100 100 100 100 100 100 100 100 87 94 92 100 92 11 5 98 42 42 66 7 0 4 5 27 5 4 0 0 0 1
99 100 100 94 68 99 100 100 46 100 70 86 14 11 16 97 100 100 100 100 100 100 100 100 84 65 78 99 9 73 100 100 18 62 2 5 3 50 5 3 3 0 0 2 5
100 100 100 100 100 100 97 100 100 100 100 99 30 32 100 100 100 63 15 92 100 100 100 100 100 66 97 95 34 100 100 100 100 4 5 5 4 5 5 59 11 4 0 0 1
100 100 100 100 100 100 100 100 100 100 100 100 90 96 100 100 96 66 20 100 100 100 100 72 21 58 58 100 89 100 100 98 42 5 8 10 84 5 5 5 66 5 5 4 0
100 100 100 100 100 100 100 100 100 100 100 100 100 100 100 100 100 99 86 99 100 100 100 73 98 100 100 100 100 100 55 13 70 96 74 59 100 100 31 71 31 28 5 5 5
100 100 100 100 100 100 100 100 100 100 88 98 100 100 100 100 100 100 6 64 82 92 100 96 89 50 100 100 100 80 95 81 98 100 100 100 100 100 98 64 69 5 25 67 6
100 100 100 100 100 100 100 100 94 100 100 100 98 86 100 100 100 43 99 44 100 99 100 80 77 100 100 100 100 100 81 39 100 100 100 100 100 100 90 72 63 39 53 15 20
100 100 100 100 100 100 100 100 100 100 100 100 100 100 100 100 100 100 100 80 90 100 100 100 98 100 100 100 100 92 64 100 100 100 99 100 100 100 100 46 85 99 71 47 99
93 91 100 100 100 100 100 100 100 100 100 98 55 60 100 98 56 100 100 100 100 100 100 100 100 100 96 98 100 100 100 100 100 100 100 100 100 100 97 96 100 81 95 100 97
77 100 100 100 100 100 100 100 100 100 100 63 99 6 57 100 99 100 100 99 95 99 100 100 100 100 100 100 100 67 100 100 100 100 100 87 90 100 94 100 100 100 100 100 100
5 97 100 100 100 100 100 100 100 100 100 20 44 24 100 92 97 98 100 100 100 100 100 100 100 100 100 100 97 99 100 100 100 100 57 18 5 100 86 62 100 97 100 100 100
48 86 66 100 100 100 100 100 100 100 100 75 5 32 16 57 100 100 98 100 100 100 100 100 100 100 100 100 100 100 100 100 100 100 4 80 98 96 39 93 66 99 100 100 100
93 94 17 90 100 100 100 100 100 100 97 100 52 81 100 95 99 96 100 100 100 100 100 100 100 100 100 100 100 99 100 100 100 100 68 100 80 78 55 100 74 92 100 57 21
97 71 32 7 96 100 100 100 100 100 100 99 100 100 40 100 94 76 100 100 100 100 100 100 100 100 100 100 100 100 100 100 100 100 100 100 44 96 100 100 100 100 100 47 65
92 88 98 10 14 100 100 100 70 100 100 100 100 100 94 21 100 100 9 67 100 100 100 100 100 100 100 100 100 100 94 100 100 100 98 98 100 100 100 100 100 100 94 100 36
100 100 76 94 83 99 100 100 5 15 98 100 100 100 100 100 100 100 34 5 58 100 100 100 100 100 100 100 98 100 100 100 100 100 100 51 22 100 100 100 100 100 96 54 20
100 100 96 100 100 100 100 83 5 3 92 100 100 100 100 100 100 100 100 58 86 100 100 100 98 90 100 100 100 100 100 100 100 100 100 97 13 51 98 100 64 30 17 60 100
100 100 100 100 100 100 100 96 13 5 19 98 100 100 100 100 100 100 100 100 100 100 100 100 100 100 95 100 100 100 100 100 100 100 100 100 94 97 62 10 53 49 53 26 60
100 100 100 100 100 100 100 98 100 14 15 100 81 55 100 100 100 100 100 100 100 100 100 100 100 100 99 72 99 94 100 100 100 100 100 100 100 100 86 79 100 100 53 84 66
100 100 100 100 100 100 100 47 100 100 100 100 61 99 100 99 99 100 100 100 100 100 100 100 100 100 100 100 100 100 100 100 100 100 100 100 100 100 100 100 100 100 95 22 80
100 100 100 100 100 100 100 100 100 80 100 100 100 100 99 94 29 100 100 100 100 100 100 100 100 100 100 100 100 100 100 100 100 100 100 43 100 100 100 100 100 97 82 100 100
51 80 100 100 100 100 100 100 98 5 91 100 100 100 100 100 93 100 100 100 100 100 100 100 100 100 100 100 100 100 100 100 100 100 100 100 100 100 100 100 100 96 37 29 100
20 58 51 98 100 100 100 100 100 89 100 100 100 100 100 93 100 100 100 100 100 100 100 100 100 100 100 100 100 100 100 100 100 100 100 83 100 100 94 100 100 100 100 100 100